#timestamp,LO_Frequency,Hit,StdDev 
1656745215.5,286047000.4,N
1656745235.4,286047000.4,N
1656745255.2,286046998.1,N
1656745275.0,286046999.8,N
1656745275.9,286046999.8,N
1656745295.8,286047000.0,N
1656745315.6,286047000.1,N
1656745335.5,286047001.5,N
1656745355.3,286047001.6,N
1656745375.1,286047001.6,N
1656745395.9,286047004.0,Y
1656745415.7,286047004.4,P
1656745435.5,286047006.0,N
1656745455.4,286047005.5,N
1656745475.2,286047005.4,N
1656745495.1,286047003.2,N
1656745496.0,286047003.2,N
1656745515.8,286047003.7,N
1656745535.6,286047004.1,N
1656745555.5,286047004.0,N
1656745575.3,286047001.3,N
1656745595.1,286047001.6,N
1656745615.9,286047000.3,N
1656745635.7,286047000.8,N
1656745655.6,286047000.3,N
1656745675.4,286047000.6,N
1656745695.2,286046997.7,N
1656745715.1,286046997.0,N
1656745716.0,286046997.0,N
1656745735.8,286046994.9,N
1656745755.6,286046997.6,N
1656745775.5,286046996.3,N
1656745795.3,286046992.9,N
1656745815.2,286046991.1,N
1656745835.9,286046991.2,N
1656745855.7,286046989.6,N
1656745875.6,286046988.0,N
1656745895.4,286046986.0,N
1656745915.2,286046986.2,N
1656745935.1,286046986.5,N
1656745936.0,286046986.5,N
1656745955.8,286046984.2,N
1656745975.7,286046984.7,N
1656745995.5,286046982.1,N
1656746015.3,286046982.2,N
1656746035.2,286046982.4,N
1656746055.9,286046982.9,N
1656746075.7,286046982.4,N
1656746095.6,286046983.1,N
1656746115.4,286046983.2,N
1656746135.2,286046981.0,N
1656746155.1,286046981.0,N
1656746156.0,286046981.0,N
1656746175.8,286046981.3,N
1656746195.7,286046981.6,N
1656746215.5,286046981.6,N
1656746235.3,286046981.6,Y
1656746255.2,286046993.0,P
1656746275.0,286046992.5,N
1656746275.9,286046992.5,N
1656746295.8,286046993.0,N
1656746315.6,286046990.2,Y
1656746335.4,286046998.6,P
1656746355.3,286046998.1,N
1656746375.1,286046999.1,N
1656746395.8,286046999.0,N
1656746415.7,286046999.6,N
1656746435.5,286046996.7,N
1656746455.4,286046998.0,N
1656746475.2,286046997.8,N
1656746495.0,286046997.9,N
1656746495.9,286046997.9,N
1656746515.8,286046995.4,N
1656746535.6,286046995.8,N
1656746555.4,286046995.5,N
1656746575.3,286046993.3,Y
1656746595.1,286046999.4,P
1656746615.9,286046999.1,N
1656746635.7,286046996.9,P
1656746655.5,286046999.1,N
1656746675.4,286046996.5,Y
1656746725.2,286046999.4,E
1656746735.2,286046999.3,N
1656746755.9,286046999.4,P
1656746775.7,286046999.4,P
1656746795.6,286046997.2,Y
1656746815.4,286046999.3,P
1656746835.2,286046999.0,P
1656746855.1,286046997.0,P
1656746856.0,286046997.0,Y
1656746875.8,286046999.3,P
1656746895.7,286046999.3,N
1656746915.5,286046999.3,N
1656746935.3,286046999.6,N
1656746955.2,286046996.5,Y
1656746975.0,286046998.3,P
1656746975.9,286046998.3,P
1656746995.7,286047001.8,P
1656747015.6,286047003.5,N
1656747035.4,286047003.0,N
1656747055.3,286047003.6,N
1656747075.1,286047003.6,N
1656747076.0,286047003.6,N
1656747095.8,286047004.0,N
1656747115.7,286047001.7,N
1656747135.5,286047001.7,N
1656747155.3,286047001.5,N
1656747175.2,286047001.5,N
1656747195.0,286047002.3,N
1656747195.9,286047002.3,N
1656747215.8,286047002.7,N
1656747235.6,286047001.0,N
1656747255.4,286047001.1,N
1656747275.3,286046998.2,N
1656747295.1,286047000.3,N
1656747315.8,286047000.3,N
1656747335.7,286046998.2,N
1656747355.5,286046998.3,N
1656747375.4,286046999.0,N
1656747395.2,286046996.6,N
1656747415.0,286046999.0,N
1656747415.9,286046999.0,N
1656747435.8,286046999.6,N
1656747455.6,286046999.6,N
1656747475.4,286046997.1,N
1656747495.3,286046997.4,N
1656747515.1,286046995.2,N
1656747535.9,286046995.1,N
1656747555.7,286046995.9,N
1656747575.5,286046993.8,N
1656747595.4,286046993.3,N
1656747615.2,286046996.4,N
1656747635.1,286046993.8,N
1656747636.0,286046993.8,N
1656747655.8,286046994.0,N
1656747675.6,286046994.1,N
1656747695.5,286046994.1,N
1656747715.3,286046991.8,N
1656747735.2,286046994.0,N
1656747755.9,286046994.5,N
1656747775.7,286046994.6,N
1656747795.6,286046994.7,N
1656747815.4,286046994.1,N
1656747835.2,286046994.0,N
1656747855.1,286046992.1,Y
1656747856.0,286046992.1,P
1656747875.8,286046997.2,N
1656747895.7,286046997.4,N
1656747915.5,286046997.4,N
1656747935.3,286046997.0,N
1656747955.2,286046997.1,N
1656747975.0,286046997.1,N
1656747975.9,286046997.1,N
1656747995.7,286046997.5,N
1656748015.6,286046996.8,N
1656748035.4,286046997.6,N
1656748055.3,286046995.4,Y
1656748075.1,286047001.0,P
1656748076.0,286047001.0,N
1656748095.8,286047000.3,N
1656748115.7,286047000.7,N
1656748135.5,286047000.2,N
1656748155.3,286047001.1,N
1656748175.2,286047001.0,N
1656748195.0,286047000.5,N
1656748195.9,286047000.5,N
1656748215.8,286047000.2,N
1656748235.6,286047000.8,N
1656748255.4,286046998.5,N
1656748275.3,286046998.8,N
1656748295.1,286047001.1,N
1656748315.8,286047000.7,N
1656748335.7,286047000.8,N
1656748355.5,286046998.5,N
1656748375.4,286047001.1,N
1656748395.2,286046998.5,N
1656748415.0,286046998.1,N
1656748415.9,286046998.1,N
1656748435.8,286046999.0,N
1656748455.6,286046998.6,N
1656748475.4,286047001.2,N
1656748495.3,286046998.5,N
1656748515.1,286046998.1,N
1656748535.9,286046998.7,N
1656748555.7,286046999.1,N
1656748575.5,286046999.4,N
1656748595.4,286046998.9,N
1656748615.2,286047000.7,N
1656748635.0,286046998.4,N
1656748635.9,286046998.4,N
1656748655.8,286046998.7,N
1656748675.6,286046998.6,N
1656748695.5,286046998.3,N
1656748715.3,286046998.8,N
1656748735.1,286046998.4,N
1656748755.9,286046998.3,N
1656748775.7,286046998.7,N
1656748795.5,286046996.5,Y
